Tracking 23758 objects as of 28-Oct-2021
HD Live streaming from Space Station
objects crossing your sky now

BREEZE-M DEB (TANK)

Track BREEZE-M DEB (TANK) now!
10-day predictions


NORAD ID: 33597
Int'l Code: 2009-007C
Perigee: 125.9 km
Apogee: 25,777.4 km
Inclination: 44.5 °
Period: 445.5 minutes
Semi major axis: 19322 km
RCS: 4.8079 m2 (large)
Launch date: February 11, 2009
Source: Commonwealth of Independent States (former USSR) (CIS)
Launch site: TYURATAM MISSILE AND SPACE COMPLEX (TTMTR)

Note: This is SATELLITE DEBRIS
aabbcc
Your satellite tracking list
Your tracking list is empty




NASA's NSSDC Master Catalog

Two Line Element Set (TLE):
1 33597U 09007C   21299.59904034  .03857232 -69602-5  30571-2 0  9997
2 33597  44.5350 182.4637 6637666  57.4530 350.0430  3.23222486108607
Source of the keplerian elements: AFSPC